[[{"header":{"parameterUnit":"m.s-1","parameterCategory":1,"la1":30.2991,"la2":30.254,"lo1":-89.0895,"lo2":-89.0444,"dy":0.0017,"dx":0.0017,"nx":28,"ny":28,"refTime":"2025-05-16T21:00:00:Z","depth":0,"parameterNumber":2,"parameterNumberName":"U-component_of_WINDS"},"data":[0,0,0,0,0,0,0,0,0,0,0,0,0,0,0,0,0,0,0,0,0,0,0,0,0,0,0,0,0,0,0,0,0,0,0,0,0,0,0,0,0,0,0,0,0,0,0,0,0,0,0,0,0,0,0,0,0,0,2.4188,2.4189,0,2.4323,2.4324,2.4326,2.4341,2.4339,2.4338,2.4337,2.4476,2.4481,2.4486,0,0,0,0,0,0,0,0,0,0,0,0,0,2.3944,2.3948,2.4188,2.4189,2.4191,2.4322,2.4324,2.4326,2.4341,2.4339,2.4338,2.4336,2.4474,2.448,2.4486,0,0,0,0,0,0,0,0,0,0,0,0,0,2.4061,2.395,2.4187,2.4214,2.4218,2.4322,2.4324,2.4327,2.4341,2.4339,2.4337,2.4335,2.4472,2.448,2.4487,2.4574,0,0,2.451,2.4513,0,0,0,0,0,0,0,0,2.4055,2.407,2.4209,2.4212,2.4217,2.4313,2.4289,2.441,2.4342,2.4295,2.4337,2.4334,2.4423,2.4435,2.4465,2.458,2.4586,2.451,2.4515,2.4518,2.452,0,0,0,0,0,0,0,2.4046,2.4065,2.4241,2.4211,2.4216,2.422,2.4234,2.4312,2.4369,2.4298,2.43,2.4316,2.4425,2.4457,2.4468,2.4588,2.451,2.4517,2.4521,2.4524,2.4783,2.4785,0,0,0,0,0,0,2.4033,2.4058,2.4237,2.4245,2.4129,2.4226,2.4242,2.4284,2.4368,2.4379,2.4317,2.4316,2.4446,2.4459,2.4473,2.458,2.4518,2.4525,2.4529,2.4781,2.4784,2.4786,0,0,0,0,0,0,2.4028,2.4049,2.4231,2.4152,2.4175,2.4232,2.4279,2.4288,2.432,2.4382,2.4392,2.4339,2.4444,2.4462,2.4549,2.4585,2.4528,2.4535,2.4778,2.4782,2.4785,2.4796,0,0,0,0,0,0,2.4021,2.4047,2.408,2.4152,2.418,2.4304,2.4282,2.4292,2.4333,2.4332,2.4406,2.4416,2.4444,2.4537,2.4556,2.4595,2.4541,2.4775,2.478,2.4784,2.4792,2.4799,2.4805,0,0,0,0,0,2.4012,2.4078,2.4082,2.4103,2.4222,2.4306,2.4322,2.4353,2.4335,2.437,2.441,2.4414,2.4578,2.4546,2.4567,2.4609,2.4773,2.4778,2.4783,2.479,2.4798,2.4805,0,0,0,0,0,0,2.4008,2.4088,2.4093,2.4184,2.4238,2.4309,2.4353,2.4361,2.4421,2.4418,2.4455,2.4471,2.4556,2.4591,2.4554,2.4698,2.4674,2.4684,2.4671,2.468,2.4686,2.4676,2.4547,0,0,0,0,0,2.4018,2.408,2.4146,2.422,2.4247,2.4295,2.4333,2.4352,2.441,2.4433,2.448,2.4536,2.4601,2.4642,2.4705,2.4798,2.4814,2.4837,2.4843,2.4848,2.4856,2.4908,2.4919,2.4804,2.4804,2.4804,0,0,2.4039,2.409,2.4127,2.4221,2.4265,2.4328,2.4314,2.4382,2.4429,2.4444,2.4528,2.4564,2.4629,2.4719,2.4761,2.4751,2.4892,2.4855,2.4859,2.4864,2.4915,2.4926,2.4935,2.4808,2.4807,2.4806,0,0,2.4109,2.4154,2.422,2.4265,2.4333,2.4365,2.4381,2.4451,2.4475,2.456,2.4572,2.463,2.474,2.4786,2.4824,2.4913,2.4919,2.4933,2.4966,2.5017,2.5026,2.5034,2.5066,2.5077,2.4941,2.4941,2.4941,0,2.4126,2.4222,2.4254,2.4321,2.4362,2.4379,2.4447,2.4489,2.4573,2.4602,2.4589,2.4729,2.4774,2.4875,2.4897,2.4927,2.4947,2.4924,2.5022,2.503,2.5038,2.5069,2.5081,2.4942,2.4942,2.4942,2.4941,0,2.424,2.4306,2.4352,2.4433,2.448,2.4547,2.459,2.4633,2.4649,2.4682,2.4769,2.4824,2.4898,2.4924,2.494,2.5028,2.502,2.5014,2.4991,2.505,2.508,2.5092,2.4944,2.4943,2.4943,2.4942,0,0,2.431,2.4409,2.4425,2.4463,2.4539,2.4591,2.466,2.4732,2.4769,2.4827,2.4886,2.4979,2.4975,2.5018,2.5039,2.5084,2.5151,2.5073,2.5075,2.5085,2.5252,2.5255,2.5268,2.5156,2.5158,2.516,2.5246,0,2.4389,2.4511,2.4542,2.4647,2.4708,2.4725,2.4785,2.4839,2.4872,2.493,2.4967,2.5033,2.5022,2.5048,2.5092,2.5133,2.5185,2.5127,2.5211,2.5213,2.5193,2.5284,2.5288,2.5366,2.5258,2.526,2.5261,0,2.4496,2.4557,2.4667,2.4736,2.4764,2.4817,2.4886,2.4941,2.5003,2.5024,2.5072,2.509,2.5163,2.5136,2.5237,2.5197,2.5234,2.5259,2.5263,2.5271,2.5241,2.5295,2.5392,2.5404,2.528,2.5279,2.5277,0,2.4537,2.4646,2.4726,2.4758,2.484,2.4877,2.4913,2.4973,2.5015,2.5076,2.5104,2.5173,2.521,2.5264,2.5299,2.5277,2.5398,2.5374,2.5417,2.5416,2.5441,2.5439,2.5546,2.5465,2.5465,2.5465,2.5465,0,2.4621,2.4688,2.4745,2.4795,2.487,2.4906,2.4981,2.5017,2.507,2.5127,2.5147,2.52,2.5244,2.5304,2.5332,2.5412,2.5429,2.5448,2.5455,2.5446,2.5444,2.547,2.5465,2.5468,2.5467,2.5467,2.5466,0,2.4678,2.4719,2.4808,2.4879,2.4899,2.4951,2.5012,2.5061,2.5096,2.5168,2.5187,2.5241,2.5312,2.5353,2.5443,2.5462,2.555,2.5555,2.5529,2.5532,2.5573,2.5569,2.57,2.572,2.5626,2.5627,2.5628,0,2.4729,2.4781,2.4858,2.4897,2.4934,2.4998,2.5041,2.5079,2.5123,2.5197,2.5237,2.531,2.5369,2.5483,2.553,2.5599,2.5605,2.5646,2.5615,2.5605,2.5606,2.5602,2.5607,2.5651,2.5652,2.5653,2.5653,0,2.4814,2.4833,2.4894,2.4963,2.5014,2.507,2.5126,2.5157,2.5205,2.5254,2.5327,2.5373,2.5465,2.5537,2.561,2.5648,2.5659,2.5663,2.5677,2.5668,2.5651,2.5661,2.5544,2.566,2.5659,2.5659,2.5658,2.5658,2.487,2.4917,2.4979,2.5047,2.5093,2.5145,2.5194,2.5235,2.5297,2.5374,2.5393,2.547,2.5531,2.5631,2.567,2.5731,2.5724,2.5744,2.5749,2.5753,2.5754,2.5642,2.5745,2.5745,2.5745,2.5745,2.5744,0,2.4956,2.4997,2.506,2.5137,2.5191,2.5197,2.5259,2.5304,2.5371,2.5427,2.5486,2.557,2.564,2.5694,2.5766,2.5804,2.5811,2.5822,2.5819,2.5828,2.5757,2.5738,2.5815,2.5815,2.5815,2.5815,2.5815,2.5815,2.5008,2.5088,2.5114,2.5217,2.5258,2.5333,2.5368,2.5417,2.5462,2.5555,2.5613,2.5648,2.5703,2.5779,2.5844,2.5858,2.5883,2.5893,2.5908,2.584,2.5833,2.5825,2.5808,2.5898,2.5899,2.5974,2.5975,2.5975]},{"header":{"parameterUnit":"m.s-1","parameterCategory":1,"la1":30.2991,"la2":30.254,"lo1":-89.0895,"lo2":-89.0444,"dy":0.0017,"dx":0.0017,"nx":28,"ny":28,"refTime":"2025-05-16T21:00:00:Z","depth":0,"parameterNumber":3,"parameterNumberName":"V-component_of_WINDS"},"data":[0,0,0,0,0,0,0,0,0,0,0,0,0,0,0,0,0,0,0,0,0,0,0,0,0,0,0,0,0,0,0,0,0,0,0,0,0,0,0,0,0,0,0,0,0,0,0,0,0,0,0,0,0,0,0,0,0,0,3.2652,3.2653,0,3.2736,3.2737,3.2737,3.271,3.2708,3.2707,3.2705,3.2788,3.2792,3.2796,0,0,0,0,0,0,0,0,0,0,0,0,0,3.2467,3.2471,3.2652,3.2653,3.2654,3.2735,3.2737,3.2738,3.271,3.2708,3.2706,3.2704,3.2787,3.2791,3.2796,0,0,0,0,0,0,0,0,0,0,0,0,0,3.2549,3.2472,3.2652,3.265,3.2651,3.2735,3.2737,3.2738,3.2711,3.2708,3.2706,3.2703,3.2785,3.2791,3.2797,3.2886,0,0,3.2814,3.2817,0,0,0,0,0,0,0,0,3.2544,3.2555,3.2649,3.2651,3.2652,3.271,3.2702,3.2788,3.2712,3.2688,3.2705,3.2702,3.2764,3.2771,3.2793,3.289,3.2894,3.2815,3.2818,3.2821,3.2823,0,0,0,0,0,0,0,3.2538,3.2552,3.2685,3.2651,3.2652,3.2645,3.2654,3.2718,3.274,3.269,3.2688,3.2699,3.2764,3.2787,3.2795,3.2895,3.2815,3.282,3.2823,3.2826,3.3072,3.3075,0,0,0,0,0,0,3.2532,3.2547,3.2682,3.2687,3.259,3.265,3.266,3.2694,3.2739,3.2744,3.2701,3.2697,3.2779,3.2788,3.2797,3.2907,3.2821,3.2826,3.283,3.3069,3.3072,3.3076,0,0,0,0,0,0,3.2529,3.2545,3.2679,3.2617,3.2633,3.2657,3.2694,3.2697,3.272,3.2748,3.2751,3.2721,3.2777,3.2789,3.2865,3.2909,3.2829,3.2834,3.3065,3.307,3.3074,3.3126,0,0,0,0,0,0,3.2523,3.2543,3.2578,3.2618,3.2637,3.2746,3.2697,3.27,3.2731,3.2726,3.2767,3.2771,3.2776,3.2856,3.2871,3.2916,3.2839,3.3061,3.3067,3.3073,3.3121,3.3132,3.3142,0,0,0,0,0,3.2517,3.2589,3.258,3.2597,3.2681,3.2748,3.2759,3.2764,3.2734,3.2769,3.2787,3.277,3.2902,3.2864,3.288,3.2928,3.3059,3.3066,3.3072,3.3116,3.313,3.3141,0,0,0,0,0,0,3.2552,3.2594,3.2585,3.2672,3.2707,3.2744,3.2788,3.2778,3.2821,3.2816,3.2818,3.2828,3.2906,3.2924,3.2882,3.3018,3.2976,3.2986,3.3004,3.3017,3.3027,3.3022,3.2844,0,0,0,0,0,3.257,3.2623,3.2655,3.2729,3.2747,3.2765,3.2794,3.2795,3.2831,3.2845,3.2868,3.2904,3.2953,3.2986,3.3033,3.3122,3.3132,3.3163,3.3174,3.3182,3.3191,3.3242,3.3257,3.3098,3.3098,3.3098,0,0,3.2608,3.2637,3.267,3.2737,3.2764,3.2818,3.2777,3.2835,3.2875,3.2854,3.2928,3.2946,3.2985,3.3069,3.3107,3.3087,3.3237,3.3191,3.3197,3.3202,3.325,3.3265,3.3279,3.3103,3.3102,3.3101,0,0,3.2705,3.2731,3.2796,3.2825,3.2868,3.2879,3.2894,3.2933,3.2945,3.3019,3.3005,3.3052,3.3136,3.3166,3.3192,3.3301,3.3287,3.3315,3.3371,3.342,3.3432,3.3444,3.3484,3.3498,3.3324,3.3324,3.3325,0,3.2746,3.2827,3.2831,3.2891,3.2922,3.2906,3.2972,3.2999,3.3054,3.3075,3.3051,3.3159,3.3184,3.3275,3.3302,3.3323,3.3341,3.3311,3.343,3.3442,3.3452,3.3491,3.3506,3.3328,3.3327,3.3327,3.3327,0,3.2876,3.2933,3.298,3.3036,3.3071,3.3134,3.3147,3.3182,3.318,3.3193,3.327,3.3299,3.3353,3.3374,3.3371,3.3466,3.3452,3.3429,3.3387,3.3471,3.3507,3.3521,3.3333,3.3331,3.333,3.333,0,0,3.2998,3.3056,3.3073,3.3099,3.3145,3.3188,3.325,3.3304,3.3335,3.3373,3.3426,3.3498,3.3479,3.3508,3.3508,3.3551,3.3638,3.3524,3.3525,3.3545,3.3745,3.3763,3.378,3.3628,3.3631,3.3633,3.3742,0,3.3099,3.321,3.3216,3.3316,3.3369,3.3355,3.3409,3.3443,3.3458,3.3504,3.3519,3.3572,3.354,3.3559,3.36,3.3618,3.3678,3.361,3.3678,3.368,3.367,3.3798,3.3817,3.3918,3.3756,3.3758,3.376,0,3.3233,3.3278,3.3384,3.3424,3.3446,3.3495,3.3545,3.359,3.3628,3.3636,3.3669,3.3664,3.3727,3.3682,3.377,3.3724,3.3752,3.3765,3.3769,3.3777,3.3726,3.3811,3.3951,3.3967,3.3782,3.378,3.3779,0,3.3313,3.3399,3.3475,3.3497,3.3545,3.358,3.3601,3.3637,3.3669,3.3712,3.3734,3.3783,3.3811,3.3849,3.3857,3.3824,3.3946,3.3901,3.3955,3.3955,3.3982,3.3981,3.413,3.3997,3.3997,3.3997,3.3996,0,3.3427,3.3493,3.3512,3.3558,3.3632,3.3637,3.3709,3.3728,3.376,3.381,3.38,3.3846,3.3854,3.3902,3.3908,3.3981,3.3993,3.4001,3.4002,3.4003,3.4003,3.4023,3.4017,3.4001,3.4,3.3999,3.3998,0,3.353,3.3545,3.3626,3.3665,3.3677,3.373,3.3763,3.3807,3.3821,3.3884,3.3899,3.392,3.3977,3.3988,3.4054,3.4059,3.4146,3.4139,3.4134,3.4134,3.4187,3.4183,3.4356,3.438,3.423,3.4231,3.4233,0,3.3602,3.3653,3.3698,3.3732,3.3755,3.3808,3.3842,3.3849,3.3884,3.3932,3.3971,3.4027,3.4072,3.4163,3.4184,3.4235,3.423,3.4287,3.4238,3.4238,3.4233,3.4231,3.4237,3.4297,3.4299,3.43,3.4301,0,3.373,3.3735,3.3784,3.3837,3.3878,3.3919,3.3958,3.3985,3.3998,3.4038,3.4096,3.4131,3.42,3.4256,3.4307,3.4328,3.4318,3.4317,3.4332,3.4334,3.433,3.4335,3.4162,3.4313,3.4312,3.4311,3.431,3.431,3.3821,3.3866,3.3906,3.3961,3.3992,3.4029,3.4074,3.4093,3.4143,3.42,3.4201,3.4265,3.4303,3.4371,3.4395,3.4445,3.4427,3.4449,3.4455,3.4461,3.4467,3.4321,3.4454,3.4454,3.4454,3.4453,3.4453,0,3.395,3.3975,3.4026,3.4082,3.4126,3.4113,3.4155,3.4193,3.425,3.4287,3.4332,3.44,3.4454,3.4479,3.4533,3.4568,3.4565,3.4582,3.458,3.4586,3.4479,3.4461,3.4584,3.4584,3.4584,3.4584,3.4584,3.4584,3.4022,3.4099,3.4109,3.4201,3.4225,3.4289,3.4315,3.4349,3.4379,3.4456,3.4501,3.4518,3.455,3.4606,3.4655,3.4661,3.4682,3.4703,3.4707,3.4606,3.4593,3.4581,3.4564,3.4707,3.4707,3.481,3.4811,3.4811]}]]